STARLINK-35428, 66115

Orbit data source: Space-Track

STARLINK-35428, 66115 is a payload satellite owned by SpaceX/Seattle (US) in LEO that was launched on Wed, 22 Oct 2025 UTC via an FALCON 9 launch vehicle from the Air Force Western Test Range (AFWTR). Payload-class satellites include a variety of spacecraft equipped with specific instruments for various scientific and technological missions. These include communications satellites like Starlink; space stations such as the ISS; scientific satellites like the Hubble; Earth observation satellites from companies like Planet Labs, Umbra, and HawkEye 360; GPS; miniature CubeSats for education and research; and military/defense satellites.

Loading next visibility...
Identifier
66115, 2025-237B
Orbit
LEO
Country
Flag of USUS
Related business
Manufacturer
SpaceX/Seattle
Mission
Operational spacecraft
Bus & Motor
STARLINK V2MO, Unknown motor
Mass
575 kg wet, ~530 kg dry
Launch date (UTC)
2025-10-22 (2 weeks ago)
Launch vehicle
FALCON 9
Launch site
Air Force Western Test Range (AFWTR)
Object type
Payload
Rocket body
Debris
Shape & HBR
Unknown shape, 17.7 m
Radar Cross Section
RCS unknown

Expand to show TLE details & history
Last TLE update: 16 hours ago

TLE from 16 hours ago
0 STARLINK-35428
1 66115U 25237B   25311.25001157 -.01912433  00000-0 -15079-1 0  9999
2 66115  53.1595 255.9780 0001261 101.5388  23.4682 15.74112862  3770
Epoch: 2025-11-07T06:00Z
TLE epoch observation values (Epoch: 2025-11-07T06:00:00.999Z)
Latitude
41.08995°
Longitude
-101.23911°
Altitude
350.192 km
Speed
7.705 km/s
True Right ascension
02h 21m 50s
True Declination
40° 54' 34"
Sunlit
Object was in full shadow at epoch
Visualization orbit readout
Latitude
Unknown
Longitude
Unknown
Altitude
Unknown
Speed
Unknown
Apparent Right ascension
Unknown
Apparent Declination
Unknown
Sunlit
N/A
Visualization observer readout
Local Sidereal Time
17:47:28
Azimuth
Unknown
Elevation
Unknown
Doppler factor
Unknown
Orbital elements
Apogee altitude
348.266 km
Perigee altitude
346.57 km
Semi-major axis
6,725.555 km
Eccentricity
0.00013
Inclination
53.1595°
RAAN
255.978°
Arg. of periapsis
101.5388°
True anomaly
23.47396°
Mean anomaly
23.4682°
Eccentric anomaly
23.47108°
Mean motion
3.93506 °/min
Orbital period
91.49 mins
BSTAR
-0.015079
Loading maneuver chart data...
Computing Atmospheric mass density...
Loading historical data...
Loading historical data...
Loading historical data...
Loading historical data...
Loading historical data...
Loading historical data...
Loading historical data...

Documentation

Showing up to 5 results
|